Location: Pitton
(51.0667°N, 1.7000°W)
Time: 14:01:41
(UTC+00:00)

Cosmos 1441 Rocket - Pass Details

Date: 17 September 2019
Orbit: 496 x 541 km, 81.1° (Epoch: 16 October)

Event Time Altitude Azimuth Distance (km) Brightness Sun altitude
Rises 19:54:31 0° 202° (SSW) 2,629 6.8 -15.6°
Reaches altitude 10° 19:56:42 10° 207° (SSW) 1,739 5.9 -15.9°
Maximum altitude 20:00:26 55° 285° (WNW) 622 3.9 -16.4°
Drops below altitude 10° 20:04:11 10° 5° (N) 1,730 6.1 -17.0°
Sets 20:06:20 0° 10° (N) 2,614 7.0 -17.3°
